This is the latest recevied weather packets stored in our database for station/object N5LSN. If no packets are shown the sender has not sent any weather packets the latest 10 day(s).
| Time | Temp. | Humidity | Pressure | Rain* | Wind** | Luminosity | Snow |
|---|---|---|---|---|---|---|---|
| 1777477889 | 17.22° C | 84% | 1017.4 hPa | 0 mm | - | 471 W/m² | - |
| 1777477585 | 17.22° C | 85% | 1017.3 hPa | 0 mm | - | 399 W/m² | - |
| 1777477281 | 17.78° C | 85% | 1017.4 hPa | 0 mm | - | 303 W/m² | - |
| 1777476978 | 17.22° C | 86% | 1017.6 hPa | 0 mm | - | 404 W/m² | - |
| 1777476676 | 17.22° C | 88% | 1017.4 hPa | 0 mm | - | 400 W/m² | - |
| 1777476372 | 16.67° C | 88% | 1017.5 hPa | 0 mm | - | 345 W/m² | - |
| 1777476069 | 16.67° C | 87% | 1017.5 hPa | 0 mm | - | 190 W/m² | - |
| 1777475764 | 16.67° C | 88% | 1017.7 hPa | 0 mm | - | 205 W/m² | - |
| 1777475461 | 17.22° C | 88% | 1017.7 hPa | 0 mm | - | 233 W/m² | - |
| 1777475156 | 17.22° C | 87% | 1017.7 hPa | 0 mm | - | 216 W/m² | - |
| 1777474853 | 17.22° C | 86% | 1017.9 hPa | 0 mm | - | 242 W/m² | - |
| 1777474548 | 17.22° C | 88% | 1017.6 hPa | 0 mm | - | 279 W/m² | - |
| 1777474245 | 17.22° C | 87% | 1017.4 hPa | 0 mm | - | 340 W/m² | - |
| 1777473942 | 17.22° C | 88% | 1017.3 hPa | 0 mm | - | 318 W/m² | - |
| 1777473640 | 17.22° C | 88% | 1017.4 hPa | 0 mm | - | 326 W/m² | - |
| 1777473336 | 16.67° C | 89% | 1017.3 hPa | 0 mm | - | 272 W/m² | - |
| 1777473032 | 16.67° C | 90% | 1016.8 hPa | 0 mm | - | 250 W/m² | - |
| 1777472728 | 16.11° C | 89% | 1017 hPa | 0 mm | - | 163 W/m² | - |
| 1777472426 | 16.67° C | 89% | 1017.1 hPa | 0 mm | - | 160 W/m² | - |
| 1777472123 | 16.11° C | 88% | 1016.9 hPa | 0 mm | - | 126 W/m² | - |
| 1777471823 | 16.11° C | 88% | 1016.8 hPa | 0 mm | - | 141 W/m² | - |
| 1777471520 | 16.11° C | 88% | 1017 hPa | 0 mm | - | 138 W/m² | - |
| 1777471216 | 16.11° C | 88% | 1017 hPa | 0 mm | - | 155 W/m² | - |
| 1777470913 | 16.11° C | 88% | 1016.9 hPa | 0 mm | - | 158 W/m² | - |
| 1777470611 | 16.11° C | 88% | 1017.1 hPa | 0 mm | - | 193 W/m² | - |
* Rain latest hour (hover to see other rain measurements)
** Current wind speed in m/s (hover to see current wind gust speed)